TimeEST,TemperatureF,Dew PointF,Humidity,Sea Level PressureIn,VisibilityMPH,Wind Direction,Wind SpeedMPH,Gust SpeedMPH,PrecipitationIn,Events,Conditions,WindDirDegrees,DateUTC
12:15 AM,53.6,50.0,88,30.20,10.0,NW,3.5,-,N/A,,Clear,320,2013-03-08 05:15:00
12:35 AM,53.6,50.0,88,30.20,10.0,NNW,4.6,-,N/A,,Clear,330,2013-03-08 05:35:00
12:55 AM,53.6,50.0,88,30.20,10.0,NNW,4.6,-,N/A,,Clear,340,2013-03-08 05:55:00
1:15 AM,53.6,50.0,88,30.19,10.0,Calm,Calm,-,N/A,,Clear,0,2013-03-08 06:15:00
1:35 AM,51.8,50.0,94,30.19,10.0,NNW,3.5,-,N/A,,Clear,340,2013-03-08 06:35:00
1:55 AM,51.8,48.2,88,30.18,10.0,NNW,3.5,-,N/A,,Clear,340,2013-03-08 06:55:00
2:15 AM,51.8,48.2,88,30.18,10.0,NNW,3.5,-,N/A,,Clear,340,2013-03-08 07:15:00
2:35 AM,51.8,48.2,88,30.18,10.0,NNW,4.6,-,N/A,,Clear,340,2013-03-08 07:35:00
2:55 AM,53.6,50.0,88,30.17,10.0,NNW,4.6,-,N/A,,Clear,330,2013-03-08 07:55:00
3:15 AM,53.6,50.0,88,30.17,10.0,NW,4.6,-,N/A,,Clear,320,2013-03-08 08:15:00
3:35 AM,53.6,50.0,88,30.17,10.0,NNW,5.8,-,N/A,,Clear,330,2013-03-08 08:35:00
3:55 AM,53.6,50.0,88,30.17,10.0,NW,5.8,-,N/A,,Clear,320,2013-03-08 08:55:00
4:15 AM,53.6,48.2,82,30.17,10.0,NW,5.8,-,N/A,,Clear,310,2013-03-08 09:15:00
4:35 AM,51.8,48.2,88,30.17,10.0,NW,4.6,-,N/A,,Clear,320,2013-03-08 09:35:00
4:55 AM,51.8,48.2,88,30.17,10.0,NW,4.6,-,N/A,,Clear,320,2013-03-08 09:55:00
5:15 AM,51.8,48.2,88,30.17,10.0,NW,5.8,-,N/A,,Clear,320,2013-03-08 10:15:00
7:47 AM,55.4,50.0,82,30.21,6.0,NW,9.2,-,N/A,,Haze,310,2013-03-08 12:47:00
9:50 AM,66.2,48.2,52,30.24,10.0,North,9.2,-,N/A,,Clear,350,2013-03-08 14:50:00
10:55 AM,66.2,44.6,46,30.23,10.0,North,9.2,-,N/A,,Clear,360,2013-03-08 15:55:00
11:47 AM,66.2,41.0,40,30.22,7.0,North,9.2,-,N/A,,Clear,360,2013-03-08 16:47:00
12:47 PM,68.0,41.0,37,30.19,7.0,NE,10.4,-,N/A,,Clear,40,2013-03-08 17:47:00
1:47 PM,68.0,39.2,35,30.17,7.0,NE,13.8,-,N/A,,Clear,40,2013-03-08 18:47:00
2:47 PM,68.0,41.0,37,30.16,10.0,NE,10.4,17.3,N/A,,Clear,40,2013-03-08 19:47:00
3:55 PM,68.0,44.6,43,30.15,10.0,NNE,11.5,-,N/A,,Clear,30,2013-03-08 20:55:00
4:47 PM,66.2,48.2,52,30.15,10.0,NNE,11.5,-,N/A,,Clear,30,2013-03-08 21:47:00
5:47 PM,66.2,48.2,52,30.16,7.0,NNE,11.5,-,N/A,,Clear,30,2013-03-08 22:47:00
6:47 PM,64.4,48.2,56,30.16,7.0,NNE,6.9,-,N/A,,Clear,30,2013-03-08 23:47:00
7:15 PM,62.6,44.6,52,30.18,10.0,North,8.1,-,N/A,,Clear,10,2013-03-09 00:15:00
7:35 PM,62.6,44.6,52,30.18,10.0,North,4.6,-,N/A,,Clear,10,2013-03-09 00:35:00
7:55 PM,62.6,44.6,52,30.18,10.0,North,5.8,-,N/A,,Clear,10,2013-03-09 00:55:00
8:15 PM,62.6,39.2,42,30.19,10.0,NNE,6.9,-,N/A,,Clear,20,2013-03-09 01:15:00
8:35 PM,64.4,37.4,37,30.19,10.0,NNE,6.9,-,N/A,,Clear,20,2013-03-09 01:35:00
8:55 PM,62.6,41.0,45,30.19,10.0,North,5.8,-,N/A,,Clear,10,2013-03-09 01:55:00
9:15 PM,64.4,46.4,52,30.19,10.0,NNE,6.9,-,N/A,,Clear,20,2013-03-09 02:15:00
9:35 PM,64.4,46.4,52,30.20,10.0,NNE,6.9,-,N/A,,Clear,20,2013-03-09 02:35:00
9:55 PM,62.6,50.0,63,30.20,10.0,North,4.6,-,N/A,,Clear,360,2013-03-09 02:55:00
10:15 PM,62.6,50.0,63,30.20,10.0,Calm,Calm,-,N/A,,Clear,0,2013-03-09 03:15:00
10:35 PM,62.6,53.6,72,30.20,10.0,NNW,3.5,-,N/A,,Clear,340,2013-03-09 03:35:00
10:55 PM,62.6,53.6,72,30.20,10.0,Calm,Calm,-,N/A,,Clear,0,2013-03-09 03:55:00
11:15 PM,59.0,51.8,77,30.19,10.0,Calm,Calm,-,N/A,,Clear,0,2013-03-09 04:15:00
11:35 PM,59.0,51.8,77,30.19,10.0,Calm,Calm,-,N/A,,Clear,0,2013-03-09 04:35:00
11:55 PM,55.4,51.8,88,30.19,10.0,West,4.6,-,N/A,,Clear,280,2013-03-09 04:55:00